Location: Bakov nad Jizerou
(50.4784°N, 14.9394°E)
Time: 18:01:14
(UTC+00:00)

GP-B - Visible Passes

Search period start: 21 October 2021 00:00
Search period end: 31 October 2021 00:00
Orbit: 631 x 634 km, 89.8° (Epoch: 20 October)

Date Brightness Start Highest point End Pass type
(mag) Time Alt. Az. Time Alt. Az. Time Alt. Az.
21 Oct 4.6 02:22:42 33° NNE 02:22:42 33° NNE 02:25:26 10° N visible
21 Oct 4.6 04:00:12 18° NW 04:00:12 18° NW 04:02:11 10° NNW visible
22 Oct 4.6 02:44:56 28° N 02:44:56 28° N 02:47:06 10° N visible
22 Oct 5.2 04:22:26 11° NW 04:22:26 11° NW 04:22:40 10° NW visible
23 Oct 6.1 01:29:37 13° NE 01:29:37 13° NE 01:30:23 10° NNE visible
23 Oct 4.9 03:07:06 20° NNW 03:07:06 20° NNW 03:08:36 10° N visible
24 Oct 5.8 01:51:43 14° NNE 01:51:43 14° NNE 01:52:30 10° NNE visible
24 Oct 5.2 03:29:12 14° NNW 03:29:12 14° NNW 03:29:54 10° NNW visible
25 Oct 5.7 02:13:47 13° N 02:13:47 13° N 02:14:20 10° N visible
26 Oct 5.8 02:35:47 11° N 02:35:47 11° N 02:35:58 10° N visible
